Location: Nickerson Gardens
(33.9320°N, 118.2484°W)
Time: 05:40:51
(UTC+00:00)

N. Korean satellite - Pass Details

Date: 26 January 2021
Orbit: 451 x 502 km, 97.2° (Epoch: 05 March)

Event Time Altitude Azimuth Distance (km) Brightness Sun altitude
Rises 13:44:09 0° 359° (N) 2,488 10.0 -14.6°
Reaches altitude 10° 13:46:21 10° 349° (N) 1,603 9.0 -14.1°
Maximum altitude 13:49:25 31° 286° (WNW) 825 7.1 -13.5°
Drops below altitude 10° 13:52:26 10° 223° (SW) 1,580 8.9 -12.9°
Sets 13:54:35 0° 212° (SSW) 2,445 9.9 -12.4°
